Regional Weather Roundup
Issued by NWS

Home | Current Version | Previous Version | Text Only | Print | Product List | Glossary On
Versions: 1 2 3 4 5 6 7 8 9 10 11 12 13 14 15 16 17 18 19 20 21 22 23 24 25 26 27 28 29 30 31 32 33 34 35 36 37 38 39 40 41 42 43 44 45 46 47 48 49 50
000
ASUS43 KLSX 231757
RWRMO

WEATHER SUMMARY FOR MISSOURI
NATIONAL WEATHER SERVICE SPRINGFIELD MO
1200 PM CST THU NOV 23 2017

NOTE: "FAIR" INDICATES FEW OR NO CLOUDS BELOW 12,000 FEET WITH NO
       SIGNIFICANT WEATHER AND/OR OBSTRUCTIONS TO VISIBILITY.
       CURRENT SKY AND/OR WEATHER CONDITIONS ARE NOT AVAILABLE FOR
       CHILLICOTHE AND FARMINGTON.

MOZ001>031-035>038-043-044-053-054-231900-
...NORTHERN AND WESTERN MISSOURI...

CITY           SKY/WX    TMP DP  RH WIND       PRES   REMARKS
KANSAS CTY INT MOSUNNY   55  32  41 W5        30.02F
6HR MIN TEMP:  34; 6HR MAX TEMP:  55;

LEE`S SUMMIT   SUNNY     55  31  39 W5        30.02F
6HR MIN TEMP:  34; 6HR MAX TEMP:  55;

ST JOSEPH      SUNNY     54  31  41 CALM      30.02F
6HR MIN TEMP:  29; 6HR MAX TEMP:  54;

CHILLICOTHE      N/A     55  32  41 NW5       30.00F
6HR MIN TEMP:  30; 6HR MAX TEMP:  55;


$$
MOZ066>068-077>081-088>096-101>105-231900-
...SOUTHWEST MISSOURI...

CITY           SKY/WX    TMP DP  RH WIND       PRES   REMARKS
SPRINGFIELD    SUNNY     58  26  29 SW10      30.04F
6HR MIN TEMP:  31; 6HR MAX TEMP:  58;


$$
MOZ032>034-039>042-045>050-055>058-069>072-231900-
...CENTRAL MISSOURI...

CITY           SKY/WX    TMP DP  RH WIND       PRES   REMARKS
COLUMBIA       NOT AVBL
JEFFERSON CITY SUNNY     53  26  35 W10       30.01F
6HR MIN TEMP:  31; 6HR MAX TEMP:  53;

ROLLA          SUNNY     55  25  31 SW12      30.02F
6HR MIN TEMP:  31; 6HR MAX TEMP:  55;

SEDALIA        SUNNY     54  30  40 SW10      30.03F
6HR MIN TEMP:  36; 6HR MAX TEMP:  54;

WARRENSBURG    SUNNY     52  28  40 SW6       30.02F

$$
MOZ051-052-059>065-231900-
...EAST CENTRAL MISSOURI...

CITY           SKY/WX    TMP DP  RH WIND       PRES   REMARKS
ST LOUIS INTL  MOSUNNY   53  22  29 SW14      30.01F
6HR MIN TEMP:  31; 6HR MAX TEMP:  53;


$$
MOZ072>076-082>087-097>100-106>115-231900-
...SOUTH CENTRAL AND SOUTHEAST MISSOURI...

CITY           SKY/WX    TMP DP  RH WIND       PRES   REMARKS
CAPE GIRARDEAU SUNNY     46  26  45 VRB6      30.10F
6HR MIN TEMP:  22; 6HR MAX TEMP:  46;

POPLAR BLUFF   SUNNY     46  27  47 S8        30.11F
6HR MIN TEMP:  24; 6HR MAX TEMP:  46;

WEST PLAINS    SUNNY     55  22  27 W10       30.06F
6HR MIN TEMP:  25; 6HR MAX TEMP:  55;


$$


USA.gov is the U.S. government's official web portal to all federal, state and local government web resources and services.